Location: Unspecified
(0.0000°N, 0.0000°E)
Time: 14:14:32
(UTC+00:00)

ISS - Pass Details

Date: 13 September 2019
Orbit: 411 x 421 km, 51.6° (Epoch: 18 September)

Event Time Altitude Azimuth Distance (km) Brightness Sun altitude
Rises 20:00:58 0° 244° (WSW) 2,339 0.9 -31.2°
Reaches altitude 10° 20:03:40 10° 267° (W) 1,473 -0.1 -31.9°
Enters shadow 20:03:53 11° 270° (W) 1,420 -0.2 -31.9°
